GSAT0223 (GALILEO 27)

Last updated on Mon Jul 07 2025 00:02:32 GMT+0000 (Coordinated Universal Time)

1 49809U 21116A 25186.91360115 -.00000086 00000+0 00000+0 0 9992 2 49809 57.2590 351.0254 0002173 178.1007 185.9743 1.70476426 22285
UTC large
Height (km)
Speed (km/s)
/
Latitude / Longitude
Inclination (degrees)
Orbital Period (minutes)
Azimuth
Elevation
Range (km)
Doppler Factor

Next 0 passes for location: London (51.5072 / 0.1276)

Sorry there are no passes over London.